Location: Big Meadows
(38.5260°N, 78.4400°W)
Time: 02:30:09
(UTC-04:00)

Amateur Radio Satellites - All Passes

Search period start: 27 August 2016 02:00
Search period end: 28 August 2016 02:00
Location: Big Meadows, 38.5260°N, 78.4400°W

Satellite Date Start Highest point End Downlink Frequencies (MHz)
Time Altitude Azimuth
ITUPSAT 1 27 Aug 02:03:53 02:07:46 26° 68° (ENE) 02:11:40 437.325
DUCHIFAT 1 27 Aug 02:04:25 02:07:08 17° 294° (WNW) 02:09:50 145.980
QB50P2 27 Aug 02:06:10 02:08:20 14° 295° (WNW) 02:10:30 145.880/145.840
RS-15 27 Aug 02:07:36 02:19:01 79° 117° (ESE) 02:31:08 29.354- 29.394
JAS-2 27 Aug 02:08:00 02:14:34 55° 289° (WNW) 02:21:51 435.910
POLYITAN 1 27 Aug 02:08:45 02:10:51 14° 295° (WNW) 02:12:57 437.675
NANOSAT C BR1 27 Aug 02:18:56 02:20:19 11° 296° (WNW) 02:21:41 145.865
SWISSCUBE 27 Aug 02:36:31 02:41:12 63° 74° (ENE) 02:45:54 437.505
BEESAT 27 Aug 02:53:41 02:58:26 86° 79° (ENE) 03:03:13 436.000
Gurwin Techsat 1B 27 Aug 03:01:22 03:06:34 53° 101° (E) 03:11:44 435.225
ITAMSAT 1 27 Aug 03:11:39 03:15:14 19° 93° (E) 03:18:49 435.822/435.867
MOZHAYETS 4 27 Aug 03:16:32 03:19:50 20° 67° (ENE) 03:23:08
KKS-1 27 Aug 03:17:46 03:20:35 17° 65° (ENE) 03:23:24 437.445
PHONESAT 2.4 27 Aug 03:26:55 03:29:55 79° 164° (SSE) 03:32:54 2401.200-2431.200
Oscar 19 27 Aug 03:38:02 03:42:37 32° 292° (WNW) 03:47:09 437.125/150
ITUPSAT 1 27 Aug 03:41:15 03:45:27 31° 263° (W) 03:49:41 437.325
STARS 27 Aug 03:55:33 03:58:48 20° 67° (ENE) 04:02:02 437.465
AO-7 27 Aug 04:03:48 04:11:02 32° 97° (E) 04:18:11 29.400- 29.500
SWISSCUBE 27 Aug 04:17:33 04:19:23 12° 269° (W) 04:21:14 437.505
RS-15 27 Aug 04:22:23 04:32:48 35° 322° (NW) 04:43:44 29.354- 29.394
CUBESAT XI-V 27 Aug 04:34:37 04:37:35 17° 65° (ENE) 04:40:32 437.345
Gurwin Techsat 1B 27 Aug 04:42:26 04:46:04 19° 296° (WNW) 04:49:42 435.225
ITAMSAT 1 27 Aug 04:49:58 04:54:56 48° 289° (WNW) 04:59:54 435.822/435.867
KKS-1 27 Aug 04:52:28 04:56:45 45° 260° (W) 05:01:05 437.445
MOZHAYETS 4 27 Aug 04:52:30 04:56:43 37° 262° (W) 05:00:58
PHONESAT 2.4 27 Aug 05:03:25 05:06:21 55° 359° (N) 05:09:18 2401.200-2431.200
AO-85 27 Aug 05:10:54 05:15:15 26° 112° (ESE) 05:19:28 145.980
Cosmos 2491 27 Aug 05:15:04 05:23:11 38° 73° (ENE) 05:31:14 435.465 / 435.565
STARS 27 Aug 05:30:50 05:34:53 35° 262° (W) 05:38:59 437.465
AO-7 27 Aug 05:56:02 06:04:03 54° 294° (WNW) 06:12:00 29.400- 29.500
HORYU 2 27 Aug 06:07:04 06:11:25 56° 101° (E) 06:15:44 437.375
BRITE-PL 27 Aug 06:09:22 06:14:17 29° 94° (E) 06:19:05 437.365/2234.400
CUBESAT XI-V 27 Aug 06:10:10 06:14:33 45° 261° (W) 06:19:01 437.345
NOAA 18 27 Aug 06:20:38 06:22:49 12° 90° (E) 06:24:59 137.9125
YUBILEINY 27 Aug 06:27:11 06:35:30 48° 89° (E) 06:43:49 435.215
PHONESAT 2.4 27 Aug 06:39:49 06:42:49 81° 197° (SSW) 06:45:47 2401.200-2431.200
RS-15 27 Aug 06:42:50 06:50:40 19° 356° (N) 06:58:38 29.354- 29.394
AO-85 27 Aug 06:50:32 06:55:33 42° 306° (NW) 07:00:20 145.980
LilacSat-2 27 Aug 06:52:08 06:55:18 25° 96° (E) 06:58:28 437.200
Cosmos 2504 27 Aug 07:09:13 07:16:21 31° 86° (E) 07:23:07 435.465 / 435.565
Cosmos 2491 27 Aug 07:11:51 07:20:03 45° 272° (W) 07:28:14 435.465 / 435.565
STRAND 1 27 Aug 07:12:14 07:17:02 42° 71° (ENE) 07:21:50 437.568
Cubesat XI-IV 27 Aug 07:12:22 07:17:28 46° 99° (E) 07:22:33 437.490
CUTE-I 27 Aug 07:24:22 07:29:38 61° 101° (ESE) 07:34:52 437.470
GOMX 1 27 Aug 07:27:00 07:32:26 71° 101° (E) 07:37:34 467.674
NOAA 15 27 Aug 07:27:57 07:33:18 85° 104° (ESE) 07:38:37 137.62
DOVE 4 27 Aug 07:37:35 07:42:19 39° 96° (E) 07:46:45 437.250
HORYU 2 27 Aug 07:45:24 07:47:28 13° 296° (WNW) 07:49:32 437.375
BRITE-PL 27 Aug 07:47:32 07:52:44 37° 290° (WNW) 07:57:50 437.365/2234.400
AO-7 27 Aug 07:52:53 07:54:56 11° 315° (NW) 07:56:58 29.400- 29.500
NOAA 18 27 Aug 07:58:32 08:04:02 77° 285° (WNW) 08:09:27 137.9125
SO-50 27 Aug 08:05:47 08:08:52 17° 44° (NE) 08:11:54 436.795
PHONESAT 2.4 27 Aug 08:16:45 08:18:52 18° 211° (SSW) 08:20:59 2401.200-2431.200
CINEMA 3 27 Aug 08:23:34 08:27:30 29° 95° (E) 08:31:16 145.822/145.860
YUBILEINY 27 Aug 08:24:32 08:32:26 36° 288° (WNW) 08:40:23 435.215
LilacSat-2 27 Aug 08:26:44 08:29:27 19° 291° (WNW) 08:32:08 437.200
HO-68 27 Aug 08:41:43 08:48:28 43° 99° (E) 08:55:10 435.675
CUBEBUG 2 27 Aug 08:47:13 08:49:12 13° 91° (E) 08:51:09 437.445
STRAND 1 27 Aug 08:52:34 08:56:21 21° 266° (W) 09:00:08 437.568
Cubesat XI-IV 27 Aug 08:53:15 08:57:12 22° 295° (WNW) 09:01:09 437.490
SEEDS 27 Aug 08:58:37 09:02:33 37° 98° (E) 09:06:27 437.485
RS-15 27 Aug 08:58:52 09:09:11 29° 32° (NNE) 09:19:25 29.354- 29.394
Cosmos 2504 27 Aug 09:01:09 09:09:22 51° 282° (WNW) 09:17:06 435.465 / 435.565
CUTE-I 27 Aug 09:05:51 09:09:08 17° 298° (WNW) 09:12:26 437.470
GOMX 1 27 Aug 09:06:50 09:09:47 15° 298° (WNW) 09:12:40 467.674
NOAA 15 27 Aug 09:10:14 09:12:18 12° 300° (WNW) 09:14:23 137.62
DOVE 4 27 Aug 09:15:50 09:19:41 22° 294° (WNW) 09:23:23 437.250
CANX-2 27 Aug 09:18:39 09:22:53 72° 284° (WNW) 09:27:07 2200.000
ISS 27 Aug 09:18:55 09:22:10 71° 139° (SE) 09:25:27 145.825
PRISM 27 Aug 09:21:05 09:25:09 75° 258° (WSW) 09:29:17 437.425
BEESAT 3 27 Aug 09:22:15 09:24:45 17° 110° (ESE) 09:27:16 437.485
CUTE 1.7 + AOD 2 27 Aug 09:24:54 09:29:07 71° 285° (WNW) 09:33:20 437.475
AAUSAT CUBESAT 2 27 Aug 09:31:26 09:35:29 48° 99° (E) 09:39:31 437.432
TIGRISAT 27 Aug 09:33:12 09:35:32 14° 65° (ENE) 09:37:50 435.000
COMPASS 1 27 Aug 09:38:48 09:42:59 78° 102° (ESE) 09:47:10 437.405
AIST 1 27 Aug 09:40:26 09:44:37 51° 94° (E) 09:48:53
SO-50 27 Aug 09:45:14 09:49:45 59° 242° (WSW) 09:54:07 436.795
UNISAT 6 27 Aug 09:59:49 10:03:44 28° 70° (ENE) 10:07:35 437.425
CINEMA 3 27 Aug 10:00:55 10:04:29 23° 292° (WNW) 10:07:55 145.822/145.860
Oscar 11 27 Aug 10:08:39 10:12:51 49° 99° (E) 10:17:01 145.826/435.025
FUNcube-1 27 Aug 10:15:23 10:19:27 53° 100° (E) 10:23:29 145.935
UWE-3 27 Aug 10:20:42 10:24:54 73° 283° (WNW) 10:29:00 435.000/436.395/437.385
CUBEBUG 2 27 Aug 10:22:02 10:26:05 45° 287° (WNW) 10:30:03 437.445
HO-68 27 Aug 10:29:39 10:36:00 35° 296° (WNW) 10:42:19 435.675
SEEDS 27 Aug 10:35:12 10:37:56 17° 293° (WNW) 10:40:39 437.485
ANTELSAT 27 Aug 10:36:01 10:40:37 69° 75° (ENE) 10:45:08 437.575/2403.000
CUSAT 1 27 Aug 10:36:03 10:42:21 52° 78° (ENE) 10:49:51 437.405
ZACube-1 27 Aug 10:36:31 10:40:40 77° 285° (WNW) 10:44:47 437.345
BEESAT 2 27 Aug 10:38:53 10:42:47 64° 118° (ESE) 10:46:43 435.950
QB50P1 27 Aug 10:42:56 10:43:57 11° 63° (ENE) 10:44:59 145.935-145.965
GONETS M04 27 Aug 10:48:24 10:51:35 12° 75° (ENE) 10:54:45
POPSAT HIP 1 27 Aug 10:51:41 10:53:49 14° 65° (ENE) 10:55:57 437.405
ISS 27 Aug 10:56:36 10:58:56 18° 336° (NNW) 11:01:17 145.825
BEESAT 3 27 Aug 10:58:28 11:02:06 37° 306° (NW) 11:05:47 437.485
TIGRISAT 27 Aug 11:07:11 11:11:44 57° 260° (W) 11:16:14 435.000
AAUSAT CUBESAT 2 27 Aug 11:08:31 11:10:32 13° 294° (WNW) 11:12:32 437.432
RS-15 27 Aug 11:11:26 11:23:55 82° 59° (ENE) 11:36:06 29.354- 29.394
DELFI C3 27 Aug 11:14:54 11:18:52 64° 285° (WNW) 11:22:50 145.870
DUCHIFAT 1 27 Aug 11:18:33 11:21:57 24° 69° (ENE) 11:25:22 145.980
QB50P2 27 Aug 11:20:07 11:23:50 30° 70° (ENE) 11:27:35 145.880/145.840
AIST 1 27 Aug 11:20:43 11:22:33 12° 290° (WNW) 11:24:24
POLYITAN 1 27 Aug 11:22:36 11:26:22 30° 70° (ENE) 11:30:07 437.675
HUMSAT D 27 Aug 11:27:20 11:31:26 78° 103° (ESE) 11:35:31 437.325/437.525
DANDE 27 Aug 11:27:40 11:33:00 53° 80° (E) 11:39:55 436.750
NANOSAT C BR1 27 Aug 11:31:33 11:35:26 35° 71° (ENE) 11:39:20 145.865
UNISAT 6 27 Aug 11:36:29 11:40:21 26° 264° (W) 11:44:12 437.425
AUBIESAT-1 27 Aug 11:41:25 11:43:57 16° 97° (E) 11:46:23 437.475
M-CUBED/EXP-1 PRIME 27 Aug 11:46:05 11:49:25 24° 99° (E) 11:52:30 437.505
Oscar 11 27 Aug 11:46:17 11:48:32 14° 295° (WNW) 11:50:47 145.826/435.025
PCSat 27 Aug 11:51:36 11:56:31 37° 110° (ESE) 12:01:29 145.827
FUNcube-1 27 Aug 11:53:42 11:55:13 12° 296° (WNW) 11:56:43 145.935
ESTCUBE 1 27 Aug 12:00:13 12:04:05 27° 96° (E) 12:07:57 437.505/2401.250
Cosmos 2499 27 Aug 12:07:50 12:15:10 37° 88° (E) 12:22:01 435.465 / 435.565
AISAT 27 Aug 12:11:02 12:14:15 19° 94° (E) 12:17:27 437.250
50 SAT 27 Aug 12:14:03 12:16:29 17° 94° (E) 12:18:56 437.505
QB50P1 27 Aug 12:14:54 12:19:09 66° 258° (WSW) 12:23:25 145.935-145.965
BUGSAT 1 27 Aug 12:14:58 12:19:00 43° 73° (ENE) 12:23:03 437.445
ANTELSAT 27 Aug 12:16:57 12:17:42 10° 270° (W) 12:18:27 437.575/2403.000
CUSAT 1 27 Aug 12:18:38 12:24:10 28° 270° (W) 12:30:26 437.405
BEESAT 2 27 Aug 12:19:08 12:21:01 13° 316° (NW) 12:22:54 435.950
JAS-2 27 Aug 12:19:41 12:24:44 56° 72° (ENE) 12:30:05 435.910
UKube-1 27 Aug 12:23:46 12:25:31 12° 92° (E) 12:27:15 .
POPSAT HIP 1 27 Aug 12:24:58 12:29:09 51° 260° (W) 12:33:19 437.405
GONETS M04 27 Aug 12:38:03 12:46:45 76° 93° (E) 12:55:33
AIST 2 27 Aug 12:46:17 12:50:17 58° 118° (ESE) 12:54:21 435.215
DUCHIFAT 1 27 Aug 12:53:55 12:57:30 27° 264° (W) 13:01:08 145.980
QB50P2 27 Aug 12:56:22 12:59:38 21° 265° (W) 13:02:55 145.880/145.840
VELOX 1 27 Aug 12:57:29 13:01:55 61° 101° (ESE) 13:06:18 145.980
POLYITAN 1 27 Aug 12:58:55 13:02:10 21° 265° (W) 13:05:25 437.675
JUGNU 27 Aug 13:00:23 13:02:25 12° 178° (S) 13:04:27 437.505
CUBEBUG 1 27 Aug 13:00:43 13:05:10 85° 100° (E) 13:09:35 437.445
NANOSAT C BR1 27 Aug 13:08:21 13:11:15 18° 266° (W) 13:14:09 145.865
DANDE 27 Aug 13:11:19 13:15:38 22° 268° (W) 13:20:45 436.750
Oscar 19 27 Aug 13:14:11 13:18:53 37° 69° (ENE) 13:23:37 437.125/150
AUBIESAT-1 27 Aug 13:14:54 13:18:34 33° 295° (WNW) 13:21:57 437.475
DX 1 27 Aug 13:16:15 13:20:38 66° 102° (ESE) 13:24:58 434.975-435.025
SPROUT 27 Aug 13:20:23 13:24:37 56° 101° (E) 13:28:46 437.525
M-CUBED/EXP-1 PRIME 27 Aug 13:20:30 13:23:50 24° 297° (WNW) 13:27:00 437.505
RS-15 27 Aug 13:25:36 13:35:00 27° 259° (W) 13:44:17 29.354- 29.394
PCSat 27 Aug 13:35:13 13:39:57 30° 307° (NW) 13:44:43 145.827
ESTCUBE 1 27 Aug 13:37:01 13:40:47 26° 291° (WNW) 13:44:33 437.505/2401.250
TISAT 1 27 Aug 13:41:50 13:44:51 19° 94° (E) 13:47:50 437.305
O/OREOS (USA 219) 27 Aug 13:43:26 13:47:00 24° 102° (ESE) 13:50:37 437.305
AO-85 27 Aug 13:44:57 13:47:12 14° 42° (NE) 13:49:21 145.980
AISAT 27 Aug 13:46:43 13:50:48 35° 289° (WNW) 13:54:51 437.250
50 SAT 27 Aug 13:46:58 13:50:03 26° 289° (WNW) 13:53:08 437.505
BUGSAT 1 27 Aug 13:52:13 13:54:34 14° 268° (W) 13:56:55 437.445
UKube-1 27 Aug 13:57:37 14:01:51 53° 287° (WNW) 14:06:03 .
Cosmos 2499 27 Aug 14:00:30 14:08:07 41° 284° (WNW) 14:15:17 435.465 / 435.565
JAS-2 27 Aug 14:07:29 14:10:23 15° 270° (W) 14:13:20 435.910
ISS 27 Aug 14:12:40 14:14:12 13° 17° (NNE) 14:15:44 145.825
Gurwin Techsat 1B 27 Aug 14:20:55 14:26:12 74° 74° (ENE) 14:31:31 435.225
AIST 2 27 Aug 14:26:46 14:29:07 15° 315° (NW) 14:31:30 435.215
ITAMSAT 1 27 Aug 14:28:06 14:32:19 26° 66° (ENE) 14:36:33 435.822/435.867
VELOX 1 27 Aug 14:35:57 14:37:50 12° 297° (WNW) 14:39:42 145.980
SRMSAT 27 Aug 14:37:22 14:38:39 11° 173° (S) 14:39:56 437.500
GONETS M04 27 Aug 14:38:03 14:44:28 22° 294° (WNW) 14:50:58
SWISSCUBE 27 Aug 14:39:08 14:42:22 18° 94° (E) 14:45:34 437.505
JUGNU 27 Aug 14:49:56 14:50:30 10° 188° (S) 14:51:05 437.505
Oscar 19 27 Aug 14:54:05 14:58:15 25° 265° (W) 15:02:27 437.125/150
DX 1 27 Aug 14:54:52 14:56:14 11° 297° (WNW) 14:57:36 434.975-435.025
BEESAT 27 Aug 14:55:48 14:59:39 24° 95° (E) 15:03:29 436.000
SPROUT 27 Aug 14:58:15 15:00:01 12° 296° (WNW) 15:01:48 437.525
AO-7 27 Aug 15:01:08 15:08:43 41° 62° (ENE) 15:16:18 29.400- 29.500
TISAT 1 27 Aug 15:16:48 15:20:32 32° 289° (WNW) 15:24:15 437.305
O/OREOS (USA 219) 27 Aug 15:22:18 15:26:15 29° 298° (WNW) 15:30:13 437.305
AO-85 27 Aug 15:23:59 15:28:09 64° 242° (WSW) 15:32:02 145.980
ITUPSAT 1 27 Aug 15:42:20 15:47:07 74° 102° (ESE) 15:51:52 437.325
ISS 27 Aug 15:48:04 15:51:16 51° 35° (NE) 15:54:29 145.825
Gurwin Techsat 1B 27 Aug 16:04:30 16:06:39 12° 270° (W) 16:08:49 435.225
ITAMSAT 1 27 Aug 16:06:51 16:11:36 36° 262° (W) 16:16:21 435.822/435.867
SWISSCUBE 27 Aug 16:15:49 16:20:19 43° 289° (WNW) 16:24:49 437.505
SRMSAT 27 Aug 16:25:03 16:26:54 11° 184° (S) 16:28:44 437.500
BEESAT 27 Aug 16:33:12 16:37:26 32° 291° (WNW) 16:41:39 436.000
YUBILEINY 27 Aug 16:39:58 16:46:19 21° 66° (ENE) 16:52:36 435.215
KKS-1 27 Aug 16:44:46 16:48:55 36° 98° (E) 16:53:01 437.445
MOZHAYETS 4 27 Aug 16:48:24 16:52:54 55° 100° (E) 16:57:23
AO-7 27 Aug 16:53:27 17:01:20 45° 259° (W) 17:09:15 29.400- 29.500
HORYU 2 27 Aug 17:03:28 17:07:42 43° 72° (ENE) 17:11:56 437.375
CUTE-I 27 Aug 17:09:32 17:10:50 11° 59° (ENE) 17:12:07 437.470
NOAA 15 27 Aug 17:09:57 17:12:43 15° 61° (ENE) 17:15:30 137.62
BRITE-PL 27 Aug 17:18:57 17:22:54 25° 67° (ENE) 17:27:06 437.365/2234.400
STARS 27 Aug 17:21:15 17:25:28 44° 99° (E) 17:29:39 437.465
ITUPSAT 1 27 Aug 17:22:36 17:24:18 12° 298° (WNW) 17:26:00 437.325
ISS 27 Aug 17:25:31 17:27:26 15° 231° (SW) 17:29:20 145.825
LilacSat-2 27 Aug 17:34:35 17:35:56 12° 66° (ENE) 17:37:17 437.200
NOAA 18 27 Aug 17:44:26 17:48:42 23° 64° (ENE) 17:52:57 137.9125
CUBESAT XI-V 27 Aug 18:07:48 18:12:22 48° 99° (E) 18:16:54 437.345
Cosmos 2491 27 Aug 18:14:21 18:22:29 46° 88° (E) 18:30:38 435.465 / 435.565
KKS-1 27 Aug 18:22:00 18:25:12 20° 294° (WNW) 18:28:23 437.445
MOZHAYETS 4 27 Aug 18:27:11 18:29:34 14° 296° (WNW) 18:31:58
Cubesat XI-IV 27 Aug 18:32:50 18:38:07 67° 74° (ENE) 18:43:25 437.490
GOMX 1 27 Aug 18:32:50 18:37:48 63° 74° (ENE) 18:43:05 467.674
YUBILEINY 27 Aug 18:35:17 18:44:03 77° 266° (W) 18:52:44 435.215
DOVE 4 27 Aug 18:40:46 18:45:24 35° 70° (ENE) 18:50:11 437.250
HORYU 2 27 Aug 18:41:42 18:44:26 16° 267° (W) 18:47:11 437.375
CUTE-I 27 Aug 18:44:42 18:50:02 86° 75° (ENE) 18:55:24 437.470
NOAA 15 27 Aug 18:46:37 18:51:51 71° 258° (WSW) 18:57:07 137.62
Cosmos 2504 27 Aug 18:55:27 19:02:30 52° 78° (ENE) 19:09:26 435.465 / 435.565
BRITE-PL 27 Aug 18:56:50 19:01:09 34° 265° (W) 19:05:51 437.365/2234.400
BEESAT 2 27 Aug 18:58:28 19:01:50 25° 51° (NE) 19:05:10 435.950
STARS 27 Aug 18:58:46 19:01:27 16° 295° (WNW) 19:04:07 437.465
LilacSat-2 27 Aug 19:06:05 19:09:48 47° 261° (W) 19:13:31 437.200
HO-68 27 Aug 19:09:26 19:15:20 29° 61° (ENE) 19:21:14 435.675
BEESAT 3 27 Aug 19:16:29 19:20:28 75° 58° (ENE) 19:24:25 437.485
CINEMA 3 27 Aug 19:23:09 19:27:18 27° 69° (ENE) 19:31:25 145.822/145.860
NOAA 18 27 Aug 19:23:42 19:29:00 46° 260° (W) 19:34:20 137.9125
STRAND 1 27 Aug 19:25:19 19:28:24 16° 92° (E) 19:31:28 437.568
CUBEBUG 2 27 Aug 19:44:38 19:46:17 12° 64° (ENE) 19:47:57 437.445
CUBESAT XI-V 27 Aug 19:46:21 19:49:20 17° 295° (WNW) 19:52:18 437.345
SEEDS 27 Aug 19:49:24 19:52:36 22° 69° (ENE) 19:55:49 437.485
AIST 1 27 Aug 19:50:56 19:52:32 12° 70° (ENE) 19:54:09
CANX-2 27 Aug 20:09:39 20:13:47 64° 76° (ENE) 20:17:58 2200.000
Cosmos 2491 27 Aug 20:11:32 20:19:23 37° 287° (WNW) 20:27:20 435.465 / 435.565
GOMX 1 27 Aug 20:13:36 20:16:20 15° 271° (W) 20:19:11 467.674
CUTE 1.7 + AOD 2 27 Aug 20:15:46 20:19:55 65° 76° (ENE) 20:24:05 437.475
Cubesat XI-IV 27 Aug 20:15:53 20:18:37 14° 269° (W) 20:21:22 437.490
DOVE 4 27 Aug 20:18:46 20:23:04 27° 266° (W) 20:27:31 437.250
AAUSAT CUBESAT 2 27 Aug 20:20:31 20:23:57 26° 70° (ENE) 20:27:23 437.432
COMPASS 1 27 Aug 20:28:00 20:31:52 41° 73° (ENE) 20:35:45 437.405
CUTE-I 27 Aug 20:30:13 20:30:42 10° 271° (W) 20:31:11 437.470
YUBILEINY 27 Aug 20:35:53 20:39:15 13° 285° (WNW) 20:42:36 435.215
BEESAT 2 27 Aug 20:36:12 20:39:36 27° 247° (WSW) 20:42:59 435.950
PCSat 27 Aug 20:40:55 20:45:18 24° 50° (NE) 20:49:39 145.827
Cosmos 2504 27 Aug 20:49:47 20:55:20 25° 276° (W) 21:00:51 435.465 / 435.565
HO-68 27 Aug 20:55:37 21:02:37 55° 259° (WSW) 21:09:40 435.675
CINEMA 3 27 Aug 20:59:43 21:04:14 33° 264° (W) 21:08:45 145.822/145.860
Oscar 11 27 Aug 21:02:04 21:05:52 31° 71° (ENE) 21:09:40 145.826/435.025
STRAND 1 27 Aug 21:02:54 21:07:53 55° 287° (WNW) 21:12:51 437.568
PRISM 27 Aug 21:05:04 21:07:44 16° 94° (E) 21:10:22 437.425
AIST 2 27 Aug 21:09:09 21:12:42 26° 50° (NE) 21:16:13 435.215
FUNcube-1 27 Aug 21:09:12 21:13:15 36° 72° (ENE) 21:17:15 145.935
UWE-3 27 Aug 21:15:27 21:20:02 74° 76° (ENE) 21:24:32 435.000/436.395/437.385
CUBEBUG 2 27 Aug 21:17:38 21:22:20 70° 259° (W) 21:26:56 437.445
SEEDS 27 Aug 21:24:36 21:28:09 27° 264° (W) 21:31:44 437.485
AIST 1 27 Aug 21:26:11 21:30:31 55° 266° (W) 21:34:47
ZACube-1 27 Aug 21:30:14 21:34:40 68° 76° (ENE) 21:39:03 437.345
AAUSAT CUBESAT 2 27 Aug 21:56:10 21:59:23 22° 265° (W) 22:02:37 437.432
DELFI C3 27 Aug 21:59:00 22:02:50 56° 75° (ENE) 22:06:43 145.870
COMPASS 1 27 Aug 22:05:24 22:07:36 14° 268° (W) 22:09:49 437.405
HUMSAT D 27 Aug 22:16:58 22:20:55 42° 73° (ENE) 22:24:50 437.325/437.525
PCSat 27 Aug 22:23:44 22:28:56 49° 248° (WSW) 22:34:06 145.827
AUBIESAT-1 27 Aug 22:24:50 22:28:22 22° 62° (ENE) 22:31:54 437.475
M-CUBED/EXP-1 PRIME 27 Aug 22:29:54 22:33:57 30° 64° (ENE) 22:38:02 437.505
ANTELSAT 27 Aug 22:30:43 22:33:07 15° 92° (E) 22:35:30 437.575/2403.000
Oscar 11 27 Aug 22:38:49 22:42:01 20° 266° (W) 22:45:13 145.826/435.025
PRISM 27 Aug 22:39:17 22:43:08 37° 289° (WNW) 22:46:59 437.425
FUNcube-1 27 Aug 22:46:25 22:49:34 19° 266° (W) 22:52:40 145.935
AIST 2 27 Aug 22:47:32 22:51:08 28° 247° (WSW) 22:54:43 435.215
GONETS M04 27 Aug 22:50:34 22:58:30 35° 72° (ENE) 23:06:21
ESTCUBE 1 27 Aug 22:58:45 23:02:09 22° 67° (ENE) 23:05:34 437.505/2401.250
TIGRISAT 27 Aug 23:00:31 23:04:18 30° 97° (E) 23:08:02 435.000
AISAT 27 Aug 23:07:42 23:10:19 16° 65° (ENE) 23:12:57 437.250
UNISAT 6 27 Aug 23:28:48 23:33:06 72° 102° (ESE) 23:37:20 437.425
RS-15 27 Aug 23:32:28 23:33:30 10° 92° (E) 23:34:32 29.354- 29.394
CUSAT 1 27 Aug 23:40:16 23:42:51 32° 91° (E) 23:45:55 437.405
Cosmos 2499 27 Aug 23:52:30 23:59:30 62° 80° (E) 00:06:35 435.465 / 435.565
VELOX 1 27 Aug 23:53:10 23:57:23 44° 72° (ENE) 00:01:37 145.980
O/OREOS (USA 219) 27 Aug 23:53:54 23:58:11 37° 63° (ENE) 00:02:28 437.305
HUMSAT D 27 Aug 23:54:33 23:56:44 14° 268° (W) 23:58:53 437.325/437.525
CUBEBUG 1 27 Aug 23:54:53 23:59:11 57° 74° (ENE) 00:03:32 437.445
SO-50 27 Aug 23:57:17 00:02:05 63° 118° (ESE) 00:06:52 436.795
AUBIESAT-1 27 Aug 23:58:12 00:02:31 39° 257° (WSW) 00:06:53 437.475
QB50P1 28 Aug 00:01:45 00:05:00 21° 95° (E) 00:08:13 145.935-145.965
M-CUBED/EXP-1 PRIME 28 Aug 00:04:19 00:08:21 29° 260° (W) 00:12:25 437.505
ANTELSAT 28 Aug 00:06:00 00:10:02 42° 288° (WNW) 00:14:02 437.575/2403.000
DX 1 28 Aug 00:10:08 00:14:18 46° 72° (ENE) 00:18:31 434.975-435.025
POPSAT HIP 1 28 Aug 00:11:29 00:15:05 27° 96° (E) 00:18:40 437.405
SPROUT 28 Aug 00:12:24 00:16:19 35° 71° (ENE) 00:20:15 437.525
50 SAT 28 Aug 00:21:58 00:25:31 79° 256° (WSW) 00:29:07 437.505
TISAT 1 28 Aug 00:33:15 00:35:12 13° 64° (ENE) 00:37:09 437.305
ESTCUBE 1 28 Aug 00:34:43 00:38:45 33° 263° (W) 00:42:48 437.505/2401.250
TIGRISAT 28 Aug 00:37:37 00:40:48 21° 292° (WNW) 00:43:58 435.000
DANDE 28 Aug 00:38:22 00:40:51 46° 96° (E) 00:43:28 436.750
DUCHIFAT 1 28 Aug 00:38:41 00:42:47 50° 100° (E) 00:46:50 145.980
QB50P2 28 Aug 00:41:28 00:45:41 68° 102° (ESE) 00:49:52 145.880/145.840
AISAT 28 Aug 00:42:05 00:46:23 48° 261° (W) 00:50:43 437.250
POLYITAN 1 28 Aug 00:43:59 00:48:12 69° 101° (ESE) 00:52:22 437.675
GONETS M04 28 Aug 00:47:06 00:55:29 49° 271° (W) 01:03:50
UKube-1 28 Aug 00:50:12 00:54:30 78° 256° (WSW) 00:58:52 .
NANOSAT C BR1 28 Aug 00:52:29 00:56:43 82° 103° (ESE) 01:00:53 145.865
JAS-2 28 Aug 01:12:50 01:19:42 65° 102° (ESE) 01:27:15 435.910
Oscar 19 28 Aug 01:28:31 01:31:17 14° 91° (E) 01:34:01 437.125/150
VELOX 1 28 Aug 01:31:25 01:34:02 15° 267° (W) 01:36:41 145.980
RS-15 28 Aug 01:32:00 01:43:08 62° 112° (ESE) 01:54:54 29.354- 29.394
BUGSAT 1 28 Aug 01:33:16 01:37:25 87° 287° (WNW) 01:41:30 437.445
O/OREOS (USA 219) 28 Aug 01:34:01 01:37:18 19° 259° (W) 01:40:34 437.305
CUBEBUG 1 28 Aug 01:34:13 01:35:48 12° 269° (W) 01:37:23 437.445
QB50P1 28 Aug 01:37:08 01:40:45 28° 290° (WNW) 01:44:22 145.935-145.965
SO-50 28 Aug 01:39:38 01:42:58 18° 315° (NW) 01:46:18 436.795
SWISSCUBE 28 Aug 01:44:32 01:47:46 19° 65° (ENE) 01:51:02 437.505
Cosmos 2499 28 Aug 01:47:08 01:51:55 20° 277° (W) 01:56:44 435.465 / 435.565
POPSAT HIP 1 28 Aug 01:47:24 01:50:44 23° 291° (WNW) 01:54:01 437.405
DX 1 28 Aug 01:48:22 01:50:43 14° 267° (W) 01:53:05 434.975-435.025
SPROUT 28 Aug 01:49:20 01:52:21 18° 266° (W) 01:55:21 437.525
